Location: Holcomb Observatory
(44.4922°N, 73.1654°W)
Time: 17:14:13
(UTC-05:00)

Daily predictions for brighter satellites

Satellite Brightness Start Highest point End
(mag) Time Altitude Azimuth Time Altitude Azimuth Time Altitude Azimuth
OTV 4 2.7 16:44:55 10° SW 16:47:16 21° S 16:49:37 10° SE
Cosmos 1378 Rocket 3.7 16:43:55 10° S 16:48:07 54° E 16:52:20 10° NNE
Cosmos 1782 4.2 16:48:05 10° SSW 16:51:52 40° WNW 16:55:42 10° N
Nadezhda 1 Rocket 4.2 16:46:04 10° SSW 16:52:07 77° W 16:58:17 10° N
GEOS 3 Rocket 4.2 16:47:45 10° ESE 16:52:24 36° NE 16:57:04 10° NNW
Cosmos 2341 Rocket 4.0 16:47:40 10° N 16:53:53 67° E 17:00:03 10° SSE
SL-27 R/B 3.9 16:51:16 10° N 16:54:03 20° ENE 16:56:48 10° ESE
Cosmos 1455 Rocket 4.3 16:53:47 10° NNE 16:57:10 21° ENE 17:00:33 10° ESE
CORIOLIS 4.3 16:55:48 10° SE 17:01:03 54° ENE 17:06:18 10° N
BREEZE-M DEB (TANK) 4.3 16:52:37 10° WNW 17:01:14 63° SW 17:05:02 10° SE
COSMOS 2406 3.2 16:55:49 10° NNW 17:01:31 63° ENE 17:07:12 10° SE
Cosmos 1048 Rocket 4.0 16:56:19 10° NNW 17:01:39 80° ENE 17:06:59 10° SSE
ISS -1.7 17:01:09 10° S 17:03:47 23° SE 17:06:08 12° E
Cosmos 158 Rocket 4.1 16:59:42 10° NNW 17:05:03 60° ENE 17:10:16 10° SE
Cosmos 2278 Rocket 3.7 17:02:00 10° SE 17:05:25 16° E 17:08:11 12° ENE
Meteor 1-5 Rocket 4.1 17:07:05 10° N 17:12:26 64° ENE 17:17:54 10° SSE
SPOT 3 Rocket 3.5 17:12:22 10° SSE 17:17:35 86° ENE 17:22:47 10° NNW
CZ-2C R/B 2.4 17:12:43 10° SSE 17:17:39 83° ENE 17:22:46 10° NNW
Cosmos 1484 Rocket 3.3 17:17:57 10° SE 17:21:21 33° ENE 17:24:44 10° N
ATLAS CENTAUR R/B 4.1 17:22:07 10° NW 17:23:58 12° NNW 17:25:48 10° N
Cosmos 1238 Rocket 3.1 17:22:07 10° SSE 17:24:40 26° E 17:25:31 23° ENE
MONITOR-E 4.5 17:23:06 10° SSE 17:26:09 44° ENE 17:29:14 10° N
ASTRO F (AKARI) 4.5 17:23:44 13° NNE 17:26:26 47° E 17:29:27 10° S
CRYOSAT 2 4.3 17:22:37 10° N 17:27:33 83° E 17:32:27 10° S
Cosmos 2082 Rocket 3.5 17:23:44 10° N 17:27:40 19° NE 17:28:55 18° ENE
BREEZE M DEB (TANK) 4.3 17:20:19 10° SSW 17:28:15 26° SSE 17:30:49 15° ESE
IDEFIX/ARIANE 42P 2.7 17:26:26 10° S 17:31:39 78° WSW 17:36:52 10° NNW
COSMOS 2441 4.3 17:30:34 10° SSE 17:35:22 66° ENE 17:40:14 10° N
Cosmos 1833 Rocket 4.0 17:32:07 10° N 17:36:02 19° NE 17:36:28 19° NE
USA 32 3.9 17:31:03 10° S 17:36:14 73° E 17:41:28 10° N
BREEZE M DEB (TANK) 3.1 17:35:36 10° WNW 17:38:31 46° NNE 17:42:21 21° ENE
Cosmos 1536 4.1 17:34:55 10° NNW 17:38:47 44° W 17:42:39 10° SSW
Okean 1 4.0 17:37:13 10° SSE 17:40:50 33° E 17:42:08 26° NE
COSMO-SKYMED 1 2.8 17:39:19 14° NNE 17:42:50 46° E 17:47:00 10° S
Meteor 1-18 Rocket 4.3 17:39:21 10° S 17:44:49 56° E 17:50:26 10° NNE
Cosmos 1544 Rocket 3.5 17:40:52 10° N 17:45:21 83° E 17:49:50 10° S
USA 234 3.8 17:42:38 16° NE 17:47:48 53° NNW 17:54:05 10° WSW
SL-24 DEB 4.2 17:43:56 10° NNE 17:48:41 62° E 17:53:20 10° S
Cosmos 1975 Rocket 3.9 17:45:35 10° SSW 17:49:47 51° WNW 17:54:01 10° N
MSX 3.9 17:44:54 10° SSE 17:50:39 80° WSW 17:56:27 10° NNW
Cosmos 372 Rocket 4.4 17:45:47 10° SSW 17:50:59 63° WNW 17:56:13 10° NNE
SMAP 4.2 17:47:33 10° S 17:52:00 45° W 17:56:30 10° NNW
Meteor 1-28 Rocket 4.0 17:54:50 32° ESE 17:54:50 32° ESE 17:57:50 10° SSE
Thor Agena Rocket 4.3 17:50:07 10° N 17:55:10 54° WNW 18:00:15 10° SW
Cosmos 2263 Rocket 4.1 17:52:42 10° WSW 17:57:12 24° NW 18:01:45 10° N
METEOR-M 4.5 17:53:18 10° SE 17:58:16 41° ENE 18:03:15 10° N
CZ-3B DEB 2.3 17:55:54 10° SW 17:59:48 69° SE 18:05:04 25° ENE
CZ-4 R/B 3.9 17:57:00 10° SSW 18:00:30 25° W 18:04:01 10° NW
NOAA 12 4.2 17:56:16 10° SE 18:01:22 51° ENE 18:06:28 10° N
NOSS 3-3 (A) 4.4 17:56:50 10° S 18:02:37 43° ESE 18:04:55 32° ENE
NOSS 3-3 (C) 4.4 17:56:57 10° S 18:02:43 42° ESE 18:04:58 32° ENE
Cosmos 1346 Rocket 4.0 18:00:48 10° SSE 18:02:56 26° SE 18:02:56 26° SE
Cosmos 494 Rocket 3.9 18:00:40 10° NNW 18:05:56 85° ENE 18:11:12 10° SSE
Cosmos 1536 Rocket 3.4 18:01:46 10° S 18:06:11 75° E 18:09:12 21° NNE
Cosmos 1812 2.7 18:06:06 10° S 18:09:57 79° W 18:12:08 25° N
ATLAS 2AS CENTAUR R/B 3.1 18:01:49 10° NW 18:09:59 84° SW 18:17:35 10° SSE
Meteor 1-12 Rocket 4.3 18:05:39 10° NNW 18:11:26 85° W 18:17:17 10° S
Cosmos 2251 Rocket 3.7 18:07:09 10° NNW 18:12:32 74° WSW 18:17:49 10° SSE
Meteor 2-21 Rocket 4.4 18:11:28 10° N 18:17:37 59° ENE 18:23:40 10° SSE
Cosmos 2366 rocket 4.4 18:12:21 10° NNW 18:18:39 65° W 18:24:53 10° S
Cosmos 1975 2.8 18:15:02 10° N 18:19:08 82° W 18:23:11 10° S
Abrixas 4.3 18:16:53 10° WNW 18:18:36 26° NW 18:18:36 26° NW
OTV 4 3.2 18:21:37 10° SW 18:23:12 13° SSW 18:23:24 13° SSW
Cosmos 1844 Rocket 3.2 18:18:01 10° SW 18:23:31 56° WNW 18:27:30 19° NNE
Meteor 2-16 Rocket 4.4 18:18:10 10° N 18:24:08 54° ENE 18:30:04 10° SSE
Timation 2 Rocket 4.2 18:19:10 10° NNW 18:25:51 56° ENE 18:28:08 39° ESE
Cosmos 1844 3.9 18:24:57 10° SW 18:30:28 65° WNW 18:33:29 27° NNE
SKYMED 2 4.2 18:27:57 19° N 18:30:55 54° WNW 18:35:09 10° SSW
SL-8 R/B 4.3 18:35:08 10° SW 18:39:03 45° S 18:39:03 45° S
ISS -1.5 18:36:51 10° WSW 18:38:49 31° W 18:38:49 31° W
Cosmos 2239 Rocket 4.3 18:40:34 10° N 18:46:49 72° E 18:52:58 10° SSE
BREEZE-M R/B 3.5 18:38:25 10° SW 18:47:23 78° SSE 18:47:38 76° ESE
Cosmos 2278 Rocket 2.2 18:43:08 10° SSW 18:48:47 75° WNW 18:50:04 54° N
Meteor 1-13 Rocket 4.1 18:44:10 10° S 18:49:48 85° E 18:50:26 71° NNE
Cosmos 1821 Rocket 3.7 18:48:26 10° N 19:01:31 - S 18:54:32 79° ENE
Cosmos 2082 Rocket 2.8 19:06:49 10° NNW 19:10:50 48° NNW 19:10:50 48° NNW
Cosmos 1833 Rocket 3.8 19:15:03 10° NNW 19:18:13 35° NNW 19:18:13 35° NNW
USA 234 4.4 19:29:59 31° N 19:29:59 31° N 19:35:33 10° WNW
FALCON 9 R/B 4.1 19:52:18 10° WSW 20:01:52 33° SW 20:01:52 33° SW
CZ-3B DEB 4.2 20:29:50 10° WNW 20:34:10 42° NW 20:34:10 42° NW
